Location: Newark
(7.0858°N, 171.3717°E)
Time: 23:22:41
(UTC+00:00)

DX 1 - Visible Passes

Search period start: 15 October 2019 00:00
Search period end: 25 October 2019 00:00
Orbit: 619 x 631 km, 98.4° (Epoch: 15 October)

Date Brightness Start Highest point End Pass type
(mag) Time Alt. Az. Time Alt. Az. Time Alt. Az.
15 Oct ? 17:03:07 10° S 17:07:20 49° WSW 17:08:54 33° NW visible
16 Oct ? 15:48:19 10° ESE 15:50:18 13° ENE 15:50:46 13° ENE visible
16 Oct ? 17:22:27 10° SSW 17:26:09 27° WSW 17:28:02 20° WNW visible
17 Oct ? 16:05:36 10° SE 16:09:04 23° ENE 16:09:53 22° ENE visible
17 Oct ? 17:42:27 10° SW 17:44:57 15° W 17:47:09 11° WNW visible
18 Oct ? 16:23:42 10° SSE 16:27:49 41° ENE 16:29:00 34° NE visible
19 Oct ? 16:42:14 10° SSE 16:46:36 79° ENE 16:48:07 40° N visible
20 Oct ? 17:01:07 10° S 17:05:24 55° WSW 17:07:13 31° NW visible
21 Oct ? 15:46:53 10° E 15:48:22 12° ENE 15:49:03 11° ENE visible
21 Oct ? 17:20:23 10° SSW 17:24:12 30° WSW 17:26:20 20° WNW visible
22 Oct ? 16:03:50 10° SE 16:07:07 21° ENE 16:08:09 19° ENE visible
22 Oct ? 17:40:13 10° SW 17:43:01 17° W 17:45:25 11° WNW visible
23 Oct ? 16:21:50 10° SE 16:25:53 37° ENE 16:27:15 29° NE visible
24 Oct ? 16:40:19 10° SSE 16:44:40 71° ENE 16:46:20 36° N visible
